Terminal Aerodrome Forecast
Issued by NWS Paducah, KY

Home | Current Version | Previous Version | Text Only | Print | Product List | Glossary On
Versions: 1 2 3 4 5 6 7 8 9 10 11 12 13 14
000
FTUS43 KPAH 231734 AAB
TAFEVV
TAF AMD
KEVV 231734Z 2318/2418 19006KT P6SM SCT040 BKN090
     FM240000 31005KT P6SM FEW200
     FM241000 VRB03KT 4SM BR FEW250
     FM241300 VRB03KT P6SM FEW030=

USA.gov is the U.S. government's official web portal to all federal, state and local government web resources and services.